Weather History for Danville, VA

Change the Weather History Date:

Friday, December 27, 2013

  Actual Average Record
Temperature  
Mean Temperature 38 °F 38 °F  
Max Temperature 52 °F 47 °F 77 °F (1982)
Min Temperature 24 °F 29 °F 6 °F (1980)
Degree Days  
Heating Degree Days 27 27  
Month to date heating degree days 560 665  
Since 1 July heating degree days 1308 1374  
Cooling Degree Days 0 0  
Month to date cooling degree days 3 0  
Year to date cooling degree days 1416 1439  
Moisture  
Dew Point 20 °F    
Average Humidity 54    
Maximum Humidity 81    
Minimum Humidity 26    
Precipitation  
Precipitation 0.00 in 0.09 in 0.60 in (1964)
Month to date precipitation 3.13 2.94  
Year to date precipitation 49.68 44.08  
Snow  
Snow 0.00 in - - ()
Month to date snowfall 0.0  
Since 1 July snowfall T  
Snow Depth 0.00 in    
Sea Level Pressure  
Sea Level Pressure 30.40 in    
Wind  
Wind Speed 2 mph (SW)    
Max Wind Speed 8 mph    
Max Gust Speed 12 mph    
Visibility 10 miles    
Events      
T = Trace of Precipitation, MM = Missing Value Source: NWS Daily Summary

Daily Weather History Graph

Daily Weather History Graph

Search for Another Location

Airport:

Trip Planner

Search our weather history database for the weather conditions in past years. The results will help you decide how hot, cold, wet, or windy it might be!

Date:

Astronomy

Dec. 27, 2013 Rise Set
Actual Time 7:28 AM EST 5:08 PM EST
Civil Twilight 6:59 AM EST 5:37 PM EST
Nautical Twilight 6:27 AM EST 6:10 PM EST
Astronomical Twilight 5:55 AM EST 6:41 PM EST
Moon 2:03 AM EST (12/27) 1:13 PM EST (12/27)
Length of Visible Light 10h 38m
Length of Day
9h 40m
Waning Crescent, 28% of the Moon is Illuminated
Dec 27
Waning Crescent
Jan 1
New
Jan 7
First Quarter
Jan 15
Full
Jan 24
Last Quarter

Hourly Weather History & Observations

Time (EST) Temp. Windchill Dew Point Humidity Pressure Visibility Wind Dir Wind Speed Gust Speed Precip Events Conditions
12:53 AM 35.1 °F 29.3 °F 19.0 °F 52% 30.36 in 10.0 mi NNW 6.9 mph - N/A   Clear
1:53 AM 28.9 °F - 19.9 °F 69% 30.37 in 10.0 mi Calm Calm - N/A   Clear
2:53 AM 28.9 °F 25.2 °F 18.0 °F 64% 30.38 in 10.0 mi SSW 3.5 mph - N/A   Clear
3:53 AM 27.0 °F - 18.0 °F 69% 30.39 in 10.0 mi Calm Calm - N/A   Clear
4:53 AM 27.0 °F 23.0 °F 18.0 °F 69% 30.39 in 10.0 mi SSW 3.5 mph - N/A   Clear
5:53 AM 26.1 °F 20.5 °F 18.0 °F 71% 30.41 in 10.0 mi South 4.6 mph - N/A   Clear
6:53 AM 25.0 °F 19.3 °F 18.0 °F 75% 30.41 in 10.0 mi SW 4.6 mph - N/A   Clear
7:53 AM 24.1 °F - 19.0 °F 81% 30.43 in 10.0 mi Calm Calm - N/A   Clear
8:53 AM 32.0 °F - 23.0 °F 69% 30.45 in 10.0 mi Calm Calm - N/A   Clear
9:53 AM 37.0 °F 34.5 °F 23.0 °F 57% 30.46 in 10.0 mi WSW 3.5 mph - N/A   Clear
10:53 AM 43.0 °F - 23.0 °F 45% 30.46 in 10.0 mi Calm Calm - N/A   Clear
11:53 AM 48.0 °F - 18.0 °F 30% 30.44 in 10.0 mi West 3.5 mph - N/A   Clear
12:53 PM 48.9 °F - 18.0 °F 29% 30.41 in 10.0 mi SSW 5.8 mph - N/A   Clear
1:53 PM 51.1 °F - 18.0 °F 27% 30.38 in 10.0 mi Variable 5.8 mph - N/A   Clear
2:53 PM 51.1 °F - 18.0 °F 27% 30.38 in 10.0 mi SW 3.5 mph - N/A   Clear
3:53 PM 52.0 °F - 18.0 °F 26% 30.37 in 10.0 mi Calm Calm - N/A   Clear
4:53 PM 48.0 °F - 19.0 °F 32% 30.36 in 10.0 mi Calm Calm - N/A   Clear
5:53 PM 39.0 °F - 19.9 °F 46% 30.38 in 10.0 mi Calm Calm - N/A   Clear
6:53 PM 36.0 °F - 18.0 °F 48% 30.39 in 10.0 mi Calm Calm - N/A   Clear
7:53 PM 34.0 °F - 19.9 °F 56% 30.40 in 10.0 mi Calm Calm - N/A   Clear
8:53 PM 30.9 °F - 21.0 °F 67% 30.42 in 10.0 mi Calm Calm - N/A   Clear
9:53 PM 32.0 °F 28.7 °F 21.9 °F 66% 30.41 in 10.0 mi SW 3.5 mph - N/A   Clear
10:53 PM 28.9 °F - 21.0 °F 72% 30.41 in 10.0 mi Calm Calm - N/A   Clear
11:53 PM 28.0 °F - 21.0 °F 75% 30.40 in 10.0 mi Calm Calm - N/A   Clear